Weather History for San Antonio, TX

Change the Weather History Date:

Wednesday, January 29, 2014

  Actual Average Record
Temperature  
Mean Temperature 39 °F 53 °F  
Max Temperature 50 °F 64 °F 86 °F (2013)
Min Temperature 28 °F 41 °F 18 °F (1951)
Degree Days  
Heating Degree Days 26 13  
Month to date heating degree days 414 394  
Since 1 July heating degree days 1054 996  
Cooling Degree Days 0 0  
Month to date cooling degree days 1 0  
Year to date cooling degree days 1 0  
Moisture  
Dew Point 13 °F    
Average Humidity 37    
Maximum Humidity 53    
Minimum Humidity 21    
Precipitation  
Precipitation 0.00 in 0.06 in 1.01 in (1989)
Month to date precipitation 0.23 1.64  
Year to date precipitation 0.23 1.64  
Snow  
Snow 0.00 in - - ()
Month to date snowfall 0.1  
Since 1 July snowfall 0.1  
Snow Depth 0.00 in    
Sea Level Pressure  
Sea Level Pressure 30.36 in    
Wind  
Wind Speed 7 mph (SE)    
Max Wind Speed 16 mph    
Max Gust Speed 20 mph    
Visibility 10 miles    
Events      
T = Trace of Precipitation, MM = Missing Value Source: NWS Daily Summary

Daily Weather History Graph

Daily Weather History Graph

Search for Another Location

Airport:

Trip Planner

Search our weather history database for the weather conditions in past years. The results will help you decide how hot, cold, wet, or windy it might be!

Date:

Astronomy

Jan. 29, 2014 Rise Set
Actual Time 7:24 AM CST 6:09 PM CST
Civil Twilight 6:59 AM CST 6:34 PM CST
Nautical Twilight 6:31 AM CST 7:03 PM CST
Astronomical Twilight 6:03 AM CST 7:31 PM CST
Moon 6:02 AM CST (1/29) 5:10 PM CST (1/29)
Length of Visible Light 11h 34m
Length of Day
10h 44m
Waning Crescent, 2% of the Moon is Illuminated
Jan 29
Waning Crescent
Jan 30
New
Feb 6
First Quarter
Feb 14
Full
Feb 22
Last Quarter

Hourly Weather History & Observations

Time (CST) Temp. Windchill Dew Point Humidity Pressure Visibility Wind Dir Wind Speed Gust Speed Precip Events Conditions
12:51 AM 33.1 °F 26.1 °F 9.0 °F 37% 30.43 in 10.0 mi North 8.1 mph - N/A   Mostly Cloudy
1:51 AM 33.1 °F - 8.1 °F 35% 30.44 in 10.0 mi Calm Calm - N/A   Mostly Cloudy
2:51 AM 28.9 °F 23.9 °F 12.0 °F 49% 30.44 in 10.0 mi NW 4.6 mph - N/A   Mostly Cloudy
3:51 AM 30.0 °F 26.5 °F 12.0 °F 47% 30.43 in 10.0 mi NW 3.5 mph - N/A   Mostly Cloudy
4:51 AM 28.9 °F 23.9 °F 12.9 °F 51% 30.42 in 10.0 mi NNW 4.6 mph - N/A   Mostly Cloudy
5:51 AM 28.0 °F 22.8 °F 12.9 °F 53% 30.40 in 10.0 mi NW 4.6 mph - N/A   Mostly Cloudy
6:51 AM 28.9 °F 22.8 °F 14.0 °F 54% 30.43 in 10.0 mi NNW 5.8 mph - N/A   Mostly Cloudy
7:51 AM 30.0 °F 25.2 °F 12.0 °F 47% 30.44 in 10.0 mi NNW 4.6 mph - N/A   Overcast
8:51 AM 33.1 °F 28.7 °F 10.9 °F 40% 30.45 in 10.0 mi North 4.6 mph - N/A   Mostly Cloudy
9:51 AM 37.0 °F 33.3 °F 12.9 °F 37% 30.46 in 10.0 mi ENE 4.6 mph - N/A   Mostly Cloudy
10:51 AM 39.0 °F 36.8 °F 14.0 °F 36% 30.46 in 10.0 mi Variable 3.5 mph - N/A   Mostly Cloudy
11:51 AM 41.0 °F 35.8 °F 14.0 °F 33% 30.44 in 10.0 mi SE 8.1 mph - N/A   Partly Cloudy
12:51 PM 45.0 °F - 16.0 °F 31% 30.39 in 10.0 mi Calm Calm - N/A   Partly Cloudy
1:51 PM 46.0 °F 44.8 °F 15.1 °F 29% 30.33 in 10.0 mi ESE 3.5 mph - N/A   Partly Cloudy
2:51 PM 48.0 °F - 15.1 °F 27% 30.30 in 10.0 mi SSE 9.2 mph - N/A   Scattered Clouds
3:51 PM 48.9 °F - 14.0 °F 25% 30.28 in 10.0 mi SE 5.8 mph - N/A   Scattered Clouds
4:51 PM 48.0 °F - 10.9 °F 22% 30.27 in 10.0 mi SE 12.7 mph - N/A   Scattered Clouds
5:51 PM 45.0 °F 39.7 °F 10.9 °F 25% 30.28 in 10.0 mi SSE 10.4 mph - N/A   Mostly Cloudy
6:51 PM 43.0 °F 37.2 °F 12.0 °F 28% 30.28 in 10.0 mi SSE 10.4 mph - N/A   Scattered Clouds
7:51 PM 39.9 °F 35.8 °F 12.0 °F 32% 30.30 in 10.0 mi SSE 5.8 mph - N/A   Partly Cloudy
8:51 PM 37.0 °F 29.8 °F 12.9 °F 37% 30.28 in 10.0 mi SE 10.4 mph - N/A   Partly Cloudy
9:51 PM 39.0 °F 32.3 °F 15.1 °F 38% 30.28 in 10.0 mi SSE 10.4 mph - N/A   Partly Cloudy
10:51 PM 37.9 °F 29.6 °F 19.0 °F 47% 30.27 in 10.0 mi SSE 13.8 mph - N/A   Partly Cloudy
11:51 PM 36.0 °F 29.6 °F 21.0 °F 55% 30.24 in 10.0 mi South 8.1 mph - N/A   Partly Cloudy